Temp
52 52 51 52 52 54 53 52 51 51 52 52 51 51 51 53 53 53 52 50 49 49 48 49 49 50 52 56 59 65 64 63 63 59 58 63 70 70 71 73 75 73 74
49 50 51 52 51 51 51 52 52 50 51 52 52 51 51 52 53 53 53 52 49 49 49 47 48 49 51 54 56 61 63 63 61 60 58 54 60 66 65 69 72 72 74
48 49 49 50 51 50 50 50 50 50 51 51 52 51 52 52 52 51 52 51 50 47 48 48 47 48 50 51 55 56 63 61 61 61 60 54 56 61 66 63 67 70 71
48 48 49 49 50 50 50 50 50 50 51 51 50 48 47 46 49 50 51 52 51 49 48 48 47 48 49 50 52 56 56 63 59 61 61 63 61 63 56 64 66 70 70
47 48 48 49 50 50 49 49 48 50 50 50 49 48 47 49 50 51 50 50 51 50 48 49 48 47 48 49 52 54 58 61 62 62 61 61 61 67 64 59 63 68 70
48 47 47 48 49 50 49 48 48 49 50 49 49 47 46 46 47 48 49 49 49 50 50 49 49 48 48 48 49 52 56 57 63 62 62 61 60 59 64 61 57 62 67
46 45 45 47 47 48 48 48 48 47 48 48 48 47 47 47 47 47 48 48 48 49 49 49 49 46 47 47 48 50 54 54 58 62 62 63 63 62 60 62 57 57 58
45 45 45 46 47 47 47 46 47 46 47 47 47 47 47 48 48 48 48 48 48 48 50 49 49 47 46 46 46 49 51 50 54 63 63 63 66 63 63 59 58 56 57
44 44 46 46 46 45 46 45 45 47 46 46 46 47 47 46 46 47 49 49 48 48 48 49 49 48 48 45 45 46 47 49 52 57 62 64 65 66 62 63 61 59 55
44 45 44 45 45 45 47 45 45 44 45 46 46 46 46 47 47 48 47 47 46 47 47 48 49 48 48 45 45 45 46 48 50 53 57 63 63 65 64 63 63 62 59
43 44 44 45 45 46 46 44 44 45 45 45 45 45 45 46 46 47 47 45 45 46 45 46 47 46 46 46 43 46 47 47 49 52 53 57 59 62 63 64 65 63 62
43 44 43 44 44 45 45 45 44 45 44 45 44 44 45 45 46 45 44 43 44 44 46 46 46 45 44 45 44 44 47 47 48 50 53 53 56 56 64 64 63 63 64
43 43 44 44 44 44 45 45 44 44 44 44 44 44 44 44 44 45 43 43 43 43 45 46 45 43 42 43 45 45 46 48 47 48 47 47 48 48 49 54 63 62 62
42 43 43 43 44 43 44 44 44 44 44 44 43 43 43 44 42 46 43 42 44 43 45 45 44 43 43 42 44 46 46 47 46 46 45 44 44 42 44 50 52 59 61
42 43 42 43 43 43 43 43 44 43 43 43 43 43 44 45 42 42 43 43 45 44 44 43 44 43 43 41 41 46 46 45 45 44 45 43 41 41 41 44 47 50 56
42 43 42 42 42 42 42 42 43 43 43 42 42 43 44 44 43 44 41 41 43 43 43 42 42 42 43 38 39 41 43 44 42 41 42 44 40 40 40 41 40 41 49
42 42 43 42 43 43 43 43 43 43 42 42 42 43 43 43 41 43 43 42 41 42 41 41 41 41 41 37 38 39 42 41 41 40 40 40 40 38 41 44 42 41 40
43 43 44 44 43 44 43 43 43 42 41 42 42 42 42 42 41 42 41 41 41 40 40 40 40 40 40 36 37 38 41 40 40 39 39 39 38 36 39 45 46 44 44
45 45 46 44 44 43 43 43 42 42 41 41 41 41 42 42 41 40 40 40 41 40 40 40 39 39 39 36 36 40 42 40 38 39 37 39 39 35 36 41 42 41 41
44 44 45 43 43 43 43 42 42 41 41 41 41 42 42 42 41 41 40 40 41 40 40 39 39 35 39 35 36 39 41 39 40 39 38 34 35 34 34 36 38 37 38
45 45 43 43 44 43 42 41 41 40 42 41 41 41 42 42 41 41 41 41 40 40 39 38 39 39 36 37 34 34 40 39 38 37 37 37 33 33 33 34 36 34 40
44 45 43 43 43 42 41 41 40 43 42 42 41 41 42 42 41 40 40 40 40 39 38 38 39 39 39 33 34 33 33 35 38 36 37 36 32 32 32 33 32 33 36
45 45 44 43 42 42 42 41 42 42 41 41 41 42 42 41 41 40 40 40 40 40 39 39 38 38 39 39 32 32 32 31 37 36 32 31 32 33 34 31 32 34 38
44 45 42 41 41 41 41 42 44 42 41 41 41 42 41 41 41 41 41 40 39 39 39 39 38 38 39 39 39 39 39 32 37 34 35 31 31 31 33 36 36 37 36
44 43 42 42 41 42 41 43 42 42 40 41 41 41 41 40 41 41 41 40 40 39 38 38 39 37 36 36 34 35 38 38 32 36 36 35 35 34 35 35 35 35 36
43 42 42 42 42 41 41 42 42 41 40 40 40 40 41 41 41 40 39 34 35 33 33 33 36 38 34 32 32 31 31 30 29 36 34 32 33 32 32 32 33 34 33
MSLP
1030.82 1030.96 1031.06 1031.04 1030.86 1030.57 1030.56 1030.39 1030.25 1030.14 1029.58 1029.00 1028.51 1027.89 1027.19 1026.65 1026.12 1025.89 1025.46 1024.96 1024.61 1023.43 1023.25 1022.57 1021.95 1021.24 1020.57 1019.66 1018.60 1017.97 1018.27 1018.69 1019.75 1020.72 1021.50 1021.90 1021.83 1021.95 1022.32 1022.39 1022.68 1023.23 1023.67
1030.44 1030.56 1030.67 1030.65 1030.59 1030.64 1030.72 1030.44 1030.33 1030.22 1029.81 1029.24 1029.00 1028.55 1027.74 1027.08 1026.41 1025.90 1025.45 1024.88 1024.63 1024.38 1023.46 1022.71 1022.34 1021.70 1020.88 1019.60 1018.96 1018.09 1017.87 1018.33 1018.87 1019.63 1020.61 1021.41 1022.22 1022.13 1022.56 1022.54 1022.61 1023.06 1023.44
1029.83 1030.03 1030.24 1030.27 1030.49 1030.54 1030.63 1030.60 1030.48 1030.35 1029.95 1029.54 1029.02 1028.55 1027.78 1026.94 1026.27 1025.93 1025.29 1024.90 1024.34 1024.12 1023.02 1022.86 1022.53 1021.76 1021.13 1020.08 1019.50 1018.76 1018.00 1017.91 1018.39 1018.47 1018.89 1020.35 1020.77 1021.52 1022.10 1022.50 1022.65 1022.91 1023.20
1029.46 1029.61 1029.79 1030.06 1030.35 1030.64 1030.65 1030.70 1030.52 1030.32 1029.88 1029.52 1029.08 1028.73 1028.10 1027.33 1026.73 1026.03 1025.38 1024.60 1023.93 1023.54 1023.12 1022.84 1022.54 1022.12 1021.24 1020.59 1019.87 1019.12 1018.44 1017.87 1017.87 1018.68 1018.74 1018.88 1019.16 1019.96 1021.36 1021.99 1022.37 1022.64 1022.89
1028.99 1029.14 1029.50 1029.85 1030.05 1030.21 1030.54 1030.61 1030.47 1030.16 1029.83 1029.55 1029.32 1028.88 1028.37 1027.87 1027.15 1026.48 1025.77 1025.04 1024.46 1023.84 1023.71 1022.84 1022.55 1022.24 1021.38 1020.72 1020.19 1019.55 1018.38 1017.79 1017.62 1018.06 1018.35 1019.01 1019.48 1019.59 1019.87 1020.70 1021.49 1022.19 1022.30
1028.55 1029.05 1029.55 1029.89 1030.02 1030.34 1030.40 1030.46 1030.27 1029.93 1029.75 1029.58 1029.35 1029.09 1028.60 1028.03 1027.24 1026.64 1025.97 1025.30 1024.75 1024.15 1023.85 1022.87 1022.95 1022.38 1021.50 1021.13 1020.56 1019.64 1018.57 1017.73 1017.51 1017.90 1018.11 1018.36 1018.74 1019.21 1019.35 1019.94 1021.06 1021.19 1021.51
1028.57 1029.04 1029.43 1029.59 1029.83 1029.95 1030.14 1030.25 1029.99 1029.78 1029.68 1029.57 1029.38 1029.09 1028.71 1028.19 1027.51 1026.89 1026.21 1025.54 1024.83 1024.37 1023.89 1022.99 1022.88 1022.50 1022.17 1021.33 1020.59 1019.85 1018.56 1017.80 1017.85 1017.57 1017.86 1018.06 1018.33 1018.71 1019.28 1019.50 1020.23 1020.89 1021.52
1028.81 1029.05 1029.29 1029.46 1029.66 1029.81 1030.05 1030.09 1029.91 1029.73 1029.62 1029.57 1029.39 1029.05 1028.71 1028.22 1027.65 1027.07 1026.57 1025.87 1025.27 1024.48 1023.62 1023.89 1023.17 1022.81 1022.83 1021.69 1020.99 1020.32 1018.86 1018.36 1018.37 1017.40 1017.82 1018.06 1018.26 1018.57 1018.64 1019.14 1019.73 1020.82 1021.16
1028.86 1028.92 1029.12 1029.39 1029.62 1029.81 1029.84 1029.92 1029.83 1029.65 1029.63 1029.58 1029.35 1028.99 1028.69 1028.30 1027.87 1027.22 1026.53 1026.03 1025.72 1025.21 1024.62 1023.98 1023.57 1023.33 1022.27 1021.86 1021.06 1020.20 1019.16 1019.34 1018.40 1017.95 1017.46 1017.70 1018.13 1018.37 1018.44 1018.87 1019.29 1019.92 1020.76
1028.66 1028.74 1029.13 1029.39 1029.59 1029.72 1029.72 1029.88 1029.93 1029.78 1029.62 1029.52 1029.21 1028.94 1028.65 1028.28 1027.92 1027.25 1026.61 1026.12 1025.77 1025.15 1024.43 1024.03 1023.67 1023.36 1022.91 1022.39 1021.12 1020.63 1019.77 1019.67 1019.01 1017.92 1017.76 1017.73 1017.93 1018.23 1018.58 1018.81 1019.18 1019.48 1019.90
1028.50 1028.73 1029.01 1029.25 1029.45 1029.55 1029.63 1029.73 1029.74 1029.66 1029.55 1029.44 1029.21 1028.91 1028.58 1028.19 1027.77 1027.15 1026.71 1026.27 1025.68 1025.20 1024.95 1024.50 1023.81 1023.56 1023.04 1022.59 1021.48 1021.58 1020.88 1020.45 1019.35 1019.34 1018.46 1018.21 1018.06 1017.97 1018.39 1018.72 1018.95 1019.20 1019.35
1028.39 1028.59 1028.99 1029.27 1029.32 1029.35 1029.40 1029.50 1029.66 1029.62 1029.63 1029.46 1029.23 1028.89 1028.57 1028.20 1027.73 1027.29 1027.03 1026.55 1025.97 1025.65 1025.12 1024.84 1024.33 1023.77 1023.14 1022.93 1022.02 1022.16 1021.16 1020.60 1019.99 1019.66 1019.13 1019.13 1018.64 1018.39 1018.09 1018.32 1018.62 1018.82 1018.86
1028.15 1028.53 1028.84 1028.94 1029.02 1029.19 1029.29 1029.46 1029.62 1029.75 1029.73 1029.48 1029.13 1028.86 1028.61 1028.28 1027.86 1027.46 1027.23 1026.76 1026.54 1026.10 1025.42 1024.93 1024.67 1024.53 1024.11 1023.33 1022.64 1022.22 1021.29 1021.42 1021.29 1020.39 1019.84 1020.14 1019.87 1019.61 1019.43 1018.96 1018.44 1018.58 1018.64
1028.07 1028.13 1028.39 1028.54 1028.64 1029.04 1029.26 1029.50 1029.62 1029.84 1029.84 1029.64 1029.29 1028.93 1028.67 1028.32 1028.12 1027.62 1027.42 1027.11 1026.66 1026.36 1025.85 1025.42 1025.04 1024.71 1024.35 1023.88 1023.27 1022.61 1021.86 1021.94 1021.40 1021.15 1021.15 1021.08 1021.09 1020.89 1020.57 1019.95 1019.31 1018.42 1018.60
1027.61 1027.78 1028.01 1028.14 1028.35 1028.83 1029.16 1029.52 1029.67 1029.84 1029.92 1029.73 1029.39 1029.12 1028.81 1028.41 1028.27 1027.99 1027.67 1027.32 1026.94 1026.80 1026.49 1026.15 1025.70 1025.22 1024.76 1024.61 1024.22 1023.50 1022.76 1022.65 1021.85 1022.00 1021.53 1021.85 1022.14 1021.87 1021.72 1020.94 1020.05 1019.49 1018.98
1027.21 1027.40 1027.65 1027.76 1028.02 1028.49 1028.86 1029.18 1029.45 1029.78 1029.89 1029.71 1029.51 1029.29 1028.93 1028.64 1028.43 1028.19 1028.03 1027.72 1027.47 1027.26 1027.00 1026.75 1026.48 1026.02 1025.61 1025.52 1024.63 1023.87 1023.43 1023.05 1022.82 1023.03 1022.73 1022.40 1022.15 1022.10 1021.41 1021.69 1020.37 1019.99 1019.94
1026.80 1026.94 1027.35 1027.63 1027.88 1028.23 1028.59 1028.95 1029.42 1029.65 1029.65 1029.59 1029.35 1029.20 1029.00 1028.73 1028.70 1028.44 1028.25 1028.01 1027.86 1027.68 1027.45 1027.26 1026.98 1026.63 1026.33 1026.08 1025.28 1024.66 1024.13 1023.98 1023.92 1023.67 1023.26 1022.72 1023.10 1022.54 1022.45 1021.51 1020.79 1020.89 1020.66
1026.59 1026.67 1026.83 1027.20 1027.63 1028.06 1028.46 1028.90 1029.22 1029.34 1029.37 1029.23 1029.12 1028.98 1028.79 1028.65 1028.74 1028.67 1028.60 1028.47 1028.27 1028.08 1027.87 1027.71 1027.48 1027.09 1026.89 1026.57 1025.91 1025.24 1024.83 1024.54 1024.54 1024.46 1024.08 1024.04 1024.16 1023.84 1022.90 1021.96 1021.56 1021.45 1021.39
1026.08 1026.44 1026.71 1026.99 1027.43 1027.77 1028.11 1028.43 1028.76 1028.98 1028.98 1028.99 1028.99 1028.97 1028.79 1028.53 1028.53 1028.58 1028.74 1028.78 1028.60 1028.45 1028.21 1028.05 1027.85 1027.57 1027.38 1027.16 1026.51 1025.56 1025.33 1025.44 1025.50 1025.46 1025.75 1025.35 1024.94 1024.32 1023.29 1022.88 1022.13 1022.24 1022.54
1025.90 1026.22 1026.68 1027.09 1027.31 1027.63 1028.20 1028.46 1028.57 1028.70 1028.79 1028.91 1029.02 1029.09 1028.96 1028.82 1028.75 1028.72 1028.73 1028.84 1028.86 1028.84 1028.64 1028.39 1028.20 1028.15 1027.77 1027.75 1027.21 1026.33 1025.98 1026.11 1026.17 1026.31 1026.25 1026.30 1025.73 1025.17 1024.26 1023.62 1023.04 1023.07 1023.12
1025.34 1025.83 1026.33 1026.66 1026.98 1027.47 1027.97 1028.16 1028.34 1028.37 1028.35 1028.67 1028.69 1028.55 1028.68 1028.77 1028.90 1029.04 1028.99 1028.87 1028.79 1028.87 1028.90 1028.71 1028.54 1028.28 1028.38 1027.92 1027.74 1027.35 1026.59 1026.40 1026.34 1026.31 1026.35 1026.47 1026.55 1025.82 1025.47 1024.78 1024.60 1024.37 1023.59
1025.06 1025.53 1025.94 1026.14 1026.53 1027.29 1027.73 1027.74 1027.83 1027.86 1028.28 1028.43 1028.35 1028.24 1028.24 1028.43 1028.76 1028.81 1029.01 1029.10 1028.93 1028.79 1028.75 1028.74 1028.65 1028.58 1028.37 1028.65 1028.22 1027.93 1027.75 1027.23 1026.70 1026.71 1026.89 1027.00 1027.02 1026.53 1026.16 1025.73 1025.64 1024.91 1024.21
1024.48 1025.04 1025.41 1025.80 1026.27 1026.66 1027.06 1027.31 1027.55 1027.98 1028.14 1028.17 1028.15 1028.31 1028.28 1028.33 1028.46 1028.67 1028.79 1028.80 1028.99 1028.87 1028.74 1028.61 1028.56 1028.58 1028.64 1028.42 1028.83 1028.49 1028.20 1028.11 1027.52 1027.59 1028.01 1027.78 1027.35 1026.78 1026.33 1026.37 1025.85 1025.15 1024.84
1023.73 1024.23 1024.81 1025.19 1025.54 1026.10 1026.46 1026.62 1026.96 1027.48 1027.79 1027.72 1027.75 1027.67 1027.75 1028.08 1028.24 1028.41 1028.50 1028.66 1028.72 1028.74 1028.77 1028.79 1028.77 1028.71 1028.66 1028.61 1028.42 1028.17 1027.95 1028.27 1027.75 1028.03 1028.09 1028.23 1027.92 1027.67 1027.18 1026.47 1026.16 1025.92 1025.96
1023.12 1023.72 1024.09 1024.45 1024.78 1025.26 1025.70 1026.04 1026.33 1026.73 1026.95 1027.17 1027.39 1027.56 1027.56 1027.54 1027.55 1027.83 1028.06 1028.29 1028.54 1028.71 1028.83 1028.90 1028.95 1029.06 1028.98 1029.11 1029.25 1029.02 1028.52 1028.36 1028.63 1028.10 1027.79 1027.74 1027.55 1027.45 1027.25 1027.09 1026.99 1026.80 1026.51
1022.39 1022.94 1023.37 1023.72 1024.03 1024.55 1024.86 1025.27 1025.64 1026.01 1026.26 1026.43 1026.64 1026.80 1026.82 1026.88 1026.99 1027.28 1027.73 1028.39 1028.54 1028.87 1028.94 1029.07 1029.03 1029.02 1029.42 1029.65 1029.59 1029.43 1029.35 1029.29 1029.09 1028.30 1027.92 1027.85 1027.83 1027.76 1027.69 1027.57 1027.51 1027.44 1027.27
Wind_Speed
10 8 7 7 7 6 8 9 10 11 9 10 11 12 12 11 10 10 11 11 10 11 10 8 10 9 8 9 7 3 11 8 8 8 5 2 5 7 7 8 8 10 11
10 10 9 8 6 7 8 9 9 10 9 8 9 9 11 10 9 10 11 11 9 9 8 10 10 10 8 9 8 5 4 3 12 7 6 4 3 5 6 7 8 10 9
13 10 10 10 7 7 8 8 9 10 9 9 8 9 10 9 9 11 11 12 10 11 10 9 10 10 8 7 8 5 6 4 9 11 6 6 5 8 6 7 8 10 9
12 12 11 9 7 8 7 8 8 9 8 9 9 12 11 12 11 10 11 12 13 10 11 10 10 9 8 9 8 6 5 4 7 9 3 2 6 7 5 7 9 9 11
12 12 10 7 8 6 6 7 8 9 8 8 9 9 11 10 10 10 14 13 12 12 9 11 10 9 7 9 10 8 4 3 6 7 5 3 2 5 4 7 8 9 10
11 10 6 6 7 6 5 6 7 8 8 7 9 10 12 12 11 12 10 10 9 9 11 12 9 9 8 10 10 10 5 4 4 5 6 5 4 5 5 4 7 7 8
10 7 6 7 6 7 5 6 6 8 8 7 9 11 11 11 12 12 10 12 10 9 11 12 10 7 8 8 9 9 8 7 6 9 7 6 6 4 2 3 3 3 2
7 7 6 6 6 6 6 6 7 8 7 7 9 10 10 7 8 10 10 8 9 10 13 10 10 9 8 9 9 7 7 8 7 9 6 5 6 4 5 3 4 3 3
7 7 5 5 6 5 6 6 6 7 5 6 7 9 9 10 9 10 11 8 9 9 10 10 9 10 11 9 8 7 9 7 7 6 5 6 6 6 5 5 5 3 5
6 5 5 5 4 4 6 5 5 4 5 6 7 8 9 9 9 9 10 11 10 11 10 10 10 11 10 10 9 7 8 8 7 6 5 5 4 7 5 6 6 5 4
6 5 5 4 5 5 6 5 3 5 6 7 8 8 8 8 8 8 10 10 11 9 9 11 11 12 12 11 10 8 8 7 9 8 6 5 4 6 6 6 7 6 6
6 5 4 4 4 5 5 4 3 6 6 7 8 8 7 8 7 8 9 9 8 8 10 10 11 12 13 13 11 9 9 10 8 9 6 8 6 7 6 6 7 7 8
6 5 3 2 4 4 3 2 4 6 6 7 8 8 8 8 8 8 8 9 8 9 10 11 12 11 12 13 12 9 10 9 8 8 11 10 10 9 7 6 6 5 4
6 5 4 3 3 2 1 1 4 5 6 7 7 7 7 8 6 8 8 7 7 9 10 11 11 11 12 13 12 10 11 10 10 11 10 12 11 10 10 6 5 2 5
6 5 5 4 4 3 4 2 3 4 5 6 8 8 7 7 6 7 7 7 8 9 10 10 11 11 12 11 12 10 10 10 11 10 10 10 13 14 9 7 6 5 4
6 6 4 5 5 5 5 4 0 2 4 5 7 7 8 8 6 7 7 8 8 9 10 10 10 11 9 18 17 12 10 11 11 10 9 9 13 15 14 13 5 6 4
7 6 5 5 5 6 6 5 2 1 3 4 5 6 7 8 5 6 6 6 7 8 9 10 10 10 13 19 16 13 9 10 11 11 11 10 10 13 11 9 7 12 12
7 6 4 4 5 6 7 5 4 3 4 3 4 5 4 6 5 6 6 6 6 7 7 9 10 9 11 18 16 10 9 9 11 13 13 11 12 14 11 7 7 9 10
7 6 4 4 5 7 8 7 5 4 5 3 4 4 3 2 3 5 5 5 5 5 6 6 8 9 10 18 16 9 7 8 10 10 14 12 12 19 17 7 8 9 9
6 6 5 5 6 6 8 7 6 5 5 3 4 5 3 1 2 3 4 4 4 5 4 6 7 8 8 16 17 10 5 7 5 7 9 19 16 18 18 10 9 8 8
8 7 7 7 8 6 8 8 6 7 6 4 3 4 4 3 3 2 2 3 4 4 4 5 6 7 9 10 14 15 7 5 5 6 7 9 18 20 19 17 11 8 6
9 9 8 8 7 8 9 9 8 7 6 5 4 5 5 5 4 4 3 2 2 3 3 3 4 5 6 11 12 13 13 9 7 6 6 8 14 18 21 14 16 13 7
10 9 9 9 8 10 10 10 10 7 7 6 5 5 5 5 5 5 4 3 1 1 2 2 3 3 4 5 8 11 10 10 6 7 8 10 11 12 12 19 17 12 9
12 10 10 10 10 11 11 12 9 8 9 9 8 6 7 7 6 4 4 3 2 2 1 0 2 2 3 4 4 4 4 4 4 4 6 5 5 8 7 8 10 10 9
11 11 11 11 12 12 12 12 11 10 10 10 8 8 8 9 8 7 5 5 4 2 2 2 0 2 2 4 5 6 3 3 5 2 4 5 5 6 7 7 8 8 8
11 11 13 12 12 12 13 12 12 12 12 10 8 8 8 8 8 7 6 7 4 8 7 4 3 2 1 2 3 5 6 5 1 3 4 4 5 5 6 6 6 7 8
Wind_Direction
253 249 256 272 296 312 337 352 353 352 354 355 355 351 351 353 352 355 346 360 341 359 347 346 336 344 332 310 320 202 178 176 157 137 110 129 178 184 187 195 186 186 188
246 245 249 255 270 303 317 331 343 345 348 350 347 346 341 345 345 348 348 354 357 343 343 353 336 338 326 332 342 330 179 180 168 174 140 140 166 197 188 199 193 189 192
259 254 246 250 268 281 301 318 325 331 336 347 341 348 347 345 352 350 348 349 352 340 351 353 337 334 333 334 333 336 267 172 182 181 160 150 173 156 178 196 201 195 199
250 255 253 254 266 292 302 304 316 320 328 337 344 353 352 344 345 343 344 341 350 352 343 346 347 327 334 331 326 324 329 173 133 168 112 85 117 182 159 195 202 208 207
253 255 249 252 259 253 299 314 313 306 323 334 346 347 350 344 338 342 342 348 345 350 341 344 344 328 335 329 323 314 344 268 145 179 147 137 107 175 157 169 188 208 212
258 251 252 255 266 297 295 301 301 317 322 334 342 351 347 342 341 346 343 345 343 342 352 350 342 327 349 345 325 323 307 16 192 180 173 173 153 184 180 145 169 201 204
284 264 254 262 268 276 301 298 317 316 329 339 346 347 345 340 339 342 343 340 340 345 344 356 338 356 345 334 338 328 337 26 322 180 183 187 199 148 144 138 123 142 142
301 281 265 262 269 281 312 305 313 310 333 351 346 344 347 344 334 339 339 339 339 340 347 339 356 353 336 341 335 318 1 10 325 205 195 188 182 176 164 138 129 142 156
309 301 291 279 306 285 309 305 303 318 353 354 345 344 344 347 338 333 337 345 346 330 342 352 355 353 358 345 348 343 13 347 348 312 193 191 187 188 157 157 153 144 177
303 311 310 303 300 293 314 310 308 316 5 354 347 345 340 348 340 333 343 346 338 336 345 352 360 356 358 355 358 355 357 359 356 331 354 199 164 180 171 168 165 182 178
302 314 328 317 309 317 314 321 359 12 9 353 343 338 341 347 340 347 353 345 338 4 3 359 356 0 2 358 13 355 13 340 10 338 7 22 353 174 182 196 200 199 192
294 294 309 324 323 317 328 360 25 15 5 352 345 342 344 351 349 353 359 345 12 12 10 7 6 4 5 358 13 359 7 10 4 348 22 24 360 10 210 192 198 214 203
287 287 285 332 322 327 345 36 21 12 357 349 353 355 2 360 359 356 12 5 27 18 6 13 12 10 7 0 2 357 21 27 28 23 39 28 20 19 357 351 221 200 196
289 296 289 278 286 320 154 116 29 9 358 351 350 3 6 358 7 5 33 19 26 21 19 15 13 13 15 10 359 3 28 25 37 28 50 34 22 15 351 336 353 290 198
282 285 286 259 243 206 173 163 18 9 3 355 358 3 4 16 29 12 8 11 29 23 22 18 18 16 19 8 6 16 27 30 38 34 36 39 21 9 341 338 343 337 314
266 280 274 245 233 198 191 175 35 5 358 1 3 359 356 7 20 28 19 9 17 18 20 21 19 24 22 0 4 10 28 36 38 30 29 29 22 1 348 306 18 38 339
251 266 279 259 238 198 185 183 196 271 331 354 358 3 358 6 14 16 32 35 18 12 19 21 18 23 23 9 9 9 39 39 37 32 25 24 10 17 340 340 55 55 34
243 256 251 232 215 187 184 169 192 242 287 311 345 353 1 11 8 30 29 29 22 17 17 19 19 21 22 12 14 7 42 45 44 36 29 28 16 10 356 4 57 52 36
228 249 245 218 193 194 185 183 199 238 262 282 334 339 327 28 35 46 36 27 24 28 25 27 25 24 25 15 20 19 48 49 47 43 37 24 26 15 9 29 63 56 35
217 219 212 201 208 204 187 194 210 229 241 251 322 319 289 352 75 67 66 61 51 45 34 41 35 36 33 24 22 19 56 57 52 53 43 37 31 29 30 41 40 61 33
203 199 193 214 224 197 189 206 216 234 229 223 277 279 238 185 133 82 79 92 87 78 48 40 43 41 31 41 35 25 38 48 58 50 39 38 31 37 40 44 44 33 35
198 203 206 215 208 196 199 215 222 232 214 223 255 246 223 186 169 152 123 92 100 104 83 46 41 37 37 33 43 48 45 27 53 50 48 43 36 43 42 44 39 36 53
209 205 212 216 207 196 202 220 232 225 215 222 238 252 225 195 175 183 170 151 130 114 100 83 57 44 33 43 47 52 53 49 62 54 53 49 41 44 43 38 34 39 43
212 206 204 213 216 205 206 221 227 215 218 230 239 236 219 206 194 195 194 192 186 178 166 106 65 67 49 29 26 38 75 103 95 108 66 54 68 62 53 43 43 44 41
208 205 207 216 220 209 213 216 217 208 215 230 241 244 234 213 204 209 209 207 199 213 190 183 216 344 24 59 43 21 30 45 58 77 70 57 51 50 45 49 44 43 41
205 207 214 220 223 215 216 217 214 207 215 224 231 236 228 217 214 214 208 215 241 196 206 197 256 181 31 132 99 81 70 70 29 99 79 69 57 52 46 42 42 38 39